NOAA 16 DEB, 41709

Orbit data source: Space-Track

NOAA 16 DEB, 41709 is space debris in SSO originally from a launch on Thu, 21 Sep 2000 UTC launched from the Air Force Western Test Range (AFWTR). Debris objects in space refer to the collection of defunct objects orbiting the Earth. Examples of debris include non-operational satellites, rocket bodies, and fragments generated from explosions, collisions, or faulty payload assembly.

Loading next visibility...
Identifier
41709, 2000-055PP
Orbit
SSO
Country
Flag of USUS
Related business
Manufacturer
Unknown
Mission
Spacecraft
Bus & Motor
Unknown
Mass
Unknown
Launch date (UTC)
2000-09-21 (25 years ago)
Launch vehicle
Unknown
Launch site
Air Force Western Test Range (AFWTR)
Object type
Payload
Rocket body
Debris
Shape & HBR
Unknown shape, 0.1 m
Radar Cross Section
Small (<0.1 m²)

Expand to show TLE details & history
Last TLE update: 23 hours ago

TLE from 23 hours ago
0 NOAA 16 DEB
1 41709U 00055PP  25349.84113946  .00030832  00000-0  36706-2 0  9990
2 41709  98.9493 193.5957 0014193 261.6848  98.2754 14.84209212507513
Epoch: 2025-12-15T20:11Z
TLE epoch observation values (Epoch: 2025-12-15T20:11:14.449Z)
Latitude
0.00001°
Longitude
166.05157°
Altitude
620.506 km
Speed
7.548 km/s
True Right ascension
12h 54m 22s
True Declination
0° 00' 00"
Sunlit
Object was in daylight at epoch
Visualization orbit readout
Latitude
Unknown
Longitude
Unknown
Altitude
Unknown
Speed
Unknown
Apparent Right ascension
Unknown
Apparent Declination
Unknown
Sunlit
N/A
Visualization observer readout
Local Sidereal Time
18:22:24
Azimuth
Unknown
Elevation
Unknown
Doppler factor
Unknown
Orbital elements
Apogee altitude
623.077 km
Perigee altitude
603.232 km
Semi-major axis
6,991.291 km
Eccentricity
0.00142
Inclination
98.9493°
RAAN
193.5957°
Arg. of periapsis
261.6848°
True anomaly
98.43631°
Mean anomaly
98.2754°
Eccentric anomaly
98.35586°
Mean motion
3.71285 °/min
Orbital period
96.96 mins
BSTAR
0.0036706
Loading maneuver chart data...
Computing Atmospheric mass density...
Loading historical data...
Loading historical data...
Loading historical data...
Loading historical data...
Loading historical data...
Loading historical data...
Loading historical data...

Documentation

Showing up to 5 results
|